Location: Lombard
(41.8800°N, 88.0080°W)
Time: 23:26:39
(UTC-05:00)

Tiros 1 - Pass Details

Date: 05 February 2023
Orbit: 628 x 662 km, 48.4° (Epoch: 20 March)

Event Time Altitude Azimuth Distance (km) Brightness Sun altitude
Rises 03:38:30 0° 295° (WNW) 2,924 - -37.8°
Reaches altitude 10° 03:40:54 10° 301° (WNW) 2,020 - -37.4°
Maximum altitude 03:45:24 48° 16° (NNE) 837 - -36.6°
Exits shadow 03:48:23 20° 83° (E) 1,484 9.6 -36.0°
Drops below altitude 10° 03:49:57 10° 91° (E) 2,036 10.4 -35.7°
Sets 03:52:21 0° 97° (E) 2,951 11.5 -35.3°
